This is the latest recevied weather packets stored in our database for station/object PY2UTU-WX. If no packets are shown the sender has not sent any weather packets the latest 10 day(s).
| Time | Temp. | Humidity | Pressure | Rain* | Wind** | Luminosity | Snow |
|---|---|---|---|---|---|---|---|
| 1777601542 | 20° C | 98% | 926.6 hPa | - | - | - | - |
| 1777600642 | 19.44° C | 98% | 926.5 hPa | - | - | - | - |
| 1777599742 | 19.44° C | 98% | 926.4 hPa | - | - | - | - |
| 1777598842 | 19.44° C | 98% | 926.4 hPa | - | - | - | - |
| 1777597942 | 20° C | 98% | 926.4 hPa | - | - | - | - |
| 1777597042 | 19.44° C | 98% | 926.3 hPa | - | - | - | - |
| 1777596142 | 19.44° C | 98% | 926.3 hPa | - | - | - | - |
| 1777595242 | 20° C | 98% | 926.2 hPa | - | - | - | - |
| 1777594342 | 20° C | 98% | 926.3 hPa | - | - | - | - |
| 1777593442 | 19.44° C | 98% | 926.1 hPa | - | - | - | - |
| 1777592542 | 19.44° C | 98% | 925.9 hPa | - | - | - | - |
| 1777591642 | 20° C | 98% | 926 hPa | - | - | - | - |
| 1777590742 | 20° C | 98% | 925.8 hPa | - | - | - | - |
| 1777589842 | 20° C | 98% | 925.7 hPa | - | - | - | - |
| 1777588942 | 20.56° C | 98% | 925.6 hPa | - | - | - | - |
| 1777588042 | 20° C | 98% | 925.5 hPa | - | - | - | - |
| 1777587142 | 20° C | 98% | 925.3 hPa | - | - | - | - |
| 1777586242 | 19.44° C | 98% | 925.2 hPa | - | - | - | - |
| 1777585342 | 18.89° C | 98% | 924.9 hPa | - | - | - | - |
| 1777584442 | 19.44° C | 98% | 924.8 hPa | - | - | - | - |
| 1777583542 | 20.56° C | 98% | 924.4 hPa | - | - | - | - |
| 1777582642 | 19.44° C | 98% | 924.5 hPa | - | - | - | - |
| 1777581742 | 20.56° C | 98% | 924.4 hPa | - | - | - | - |
| 1777580842 | 20.56° C | 98% | 924.5 hPa | - | - | - | - |
| 1777579942 | 20° C | 98% | 924.3 hPa | - | - | - | - |
* Rain since midnight (hover to see other rain measurements)
** Current wind speed in m/s (hover to see current wind gust speed)